133  
ASUS43 KBIS 192210  
RWRND  
 
NORTH DAKOTA REGIONAL WEATHER ROUNDUP  
NATIONAL WEATHER SERVICE BISMARCK ND  
500 PM CDT SUN MAY 19 2019  
 
NOTE: "FAIR" INDICATES FEW OR NO CLOUDS BELOW 12,000 FEET WITH NO  
SIGNIFICANT WEATHER AND/OR S TO VISIBILITY
.  
 
 
NDZ001>003-009>011-017-192300-  
NORTHWEST NORTH DAKOTA  
 
CITY SKY/WX TMP DP RH WIND PRES REMARKS
 
WILLISTON MOSUNNY 56 26 31 E9G17 30.08F  
MINOT SUNNY 57 22 25 N12G22 30.06F  
MINOT AFB SUNNY 56 23 28 NE15 30.05F  

 
 
NDZ018>021-031>035-040>046-192300-  
SOUTHWEST NORTH DAKOTA  
 
CITY SKY/WX TMP DP RH WIND PRES REMARKS
 
BISMARCK CLOUDY 50 34 54 NE9 30.06F  
GARRISON N/A 52 25 35 E10G29 30.06S  
HETTINGER ARPT CLOUDY 50 30 46 NE13G20 30.05F  

 
 
NDZ004>008-012>016-024-026-027-054-192300-  
NORTHEAST NORTH DAKOTA  
 
CITY SKY/WX TMP DP RH WIND PRES REMARKS
 
GRAND FORKS PTSUNNY 60 25 26 NE15 29.98F  
GRND FRKS AFB MOSUNNY 59 23 25 VRB6 30.01F  
DEVILS LAKE SUNNY 57 22 25 NE18 30.03S  

 
 
NDZ022-023-025-028>030-036>039-047>053-192300-  
SOUTHEAST NORTH DAKOTA  
 
CITY SKY/WX TMP DP RH WIND PRES REMARKS
 
FARGO CLOUDY 54 35 48 N8 29.97F  
JAMESTOWN CLOUDY 52 33 48 NE10 30.01S  

 
 
 
 
CLICK HERE TO GO TO PREVIOUS BULLETINS.

The Nexlab ND Page Main Text Page